This is the latest recevied weather packets stored in our database for station/object W1QED. If no packets are shown the sender has not sent any weather packets the latest 1 day(s).
| Time | Temp. | Humidity | Pressure | Rain* | Wind** | Luminosity | Snow |
|---|---|---|---|---|---|---|---|
| 1778033145 | 18.89° C | 45% | 1009 hPa | 0 mm | 0.89 m/s, 205° | - | - |
| 1778032844 | 19.44° C | 45% | 1009 hPa | 0 mm | 1.34 m/s, 239° | - | - |
| 1778032545 | 19.44° C | 45% | 1009 hPa | 0 mm | 2.24 m/s, 232° | - | - |
| 1778032244 | 19.44° C | 44% | 1009 hPa | 0 mm | 2.24 m/s, 186° | - | - |
| 1778031954 | 19.44° C | 44% | 1008.9 hPa | 0 mm | 3.13 m/s, 243° | - | - |
| 1778031641 | 19.44° C | 44% | 1008.8 hPa | 0 mm | 2.24 m/s, 223° | - | - |
| 1778031341 | 19.44° C | 44% | 1008.7 hPa | 0 mm | 2.68 m/s, 235° | - | - |
| 1778031042 | 19.44° C | 44% | 1008.7 hPa | 0 mm | 1.34 m/s, 250° | - | - |
| 1778030740 | 20° C | 43% | 1008.6 hPa | 0 mm | 1.34 m/s, 227° | - | - |
| 1778030439 | 20° C | 43% | 1008.6 hPa | 0 mm | 3.13 m/s, 268° | - | - |
| 1778030140 | 20° C | 43% | 1008.6 hPa | 0 mm | 2.24 m/s, 225° | - | - |
| 1778029837 | 20° C | 43% | 1008.6 hPa | 0 mm | 1.34 m/s, 282° | - | - |
| 1778029537 | 20.56° C | 42% | 1008.6 hPa | 0 mm | 0.89 m/s, 259° | - | - |
| 1778029248 | 20.56° C | 41% | 1008.5 hPa | 0 mm | 1.79 m/s, 236° | - | - |
| 1778028936 | 20.56° C | 41% | 1008.2 hPa | 0 mm | 2.24 m/s, 259° | - | - |
| 1778028635 | 20.56° C | 40% | 1008.1 hPa | 0 mm | 2.68 m/s, 175° | - | - |
| 1778028345 | 20.56° C | 40% | 1008.1 hPa | 0 mm | 3.58 m/s, 243° | - | - |
| 1778028033 | 20.56° C | 40% | 1008.1 hPa | 0 mm | 1.79 m/s, 225° | - | - |
| 1778027733 | 21.11° C | 40% | 1008 hPa | 0 mm | 2.68 m/s, 202° | - | - |
| 1778027439 | 21.11° C | 40% | 1007.9 hPa | 0 mm | 4.02 m/s, 236° | - | - |
| 1778027132 | 21.11° C | 40% | 1007.8 hPa | 0 mm | 2.68 m/s, 233° | - | - |
| 1778026831 | 21.11° C | 39% | 1007.7 hPa | 0 mm | 2.68 m/s, 259° | - | - |
| 1778026534 | 21.11° C | 39% | 1007.6 hPa | 0 mm | 3.58 m/s, 245° | - | - |
| 1778026231 | 21.67° C | 38% | 1007.4 hPa | 0 mm | 4.47 m/s, 222° | - | - |
| 1778025931 | 21.67° C | 38% | 1007.2 hPa | 0 mm | 3.13 m/s, 218° | - | - |
* Rain latest hour (hover to see other rain measurements)
** Current wind speed in m/s (hover to see current wind gust speed)